#timestamp,LO_Frequency,Hit,StdDev 
1542445215.8,286046994.5,N
1542445235.7,286046992.1,N
1542445255.5,286046995.0,N
1542445275.3,286046994.7,N
1542445295.2,286046993.5,N
1542445315.9,286046993.4,N
1542445335.7,286046997.4,N
1542445355.6,286046999.4,N
1542445375.4,286046999.3,N
1542445395.3,286046996.5,N
1542445415.1,286046997.0,N
1542445416.0,286046997.0,N
1542445435.8,286046996.9,N
1542445455.7,286046997.4,N
1542445475.5,286046997.4,N
1542445495.3,286046994.6,N
1542445515.2,286046994.8,N
1542445535.0,286046996.3,N
1542445535.9,286046996.3,N
1542445555.8,286046997.5,N
1542445575.6,286046999.3,N
1542445595.4,286046996.5,N
1542445615.3,286047003.7,N
1542445635.1,286047003.9,N
1542445655.8,286047002.6,N
1542445675.7,286046998.8,N
1542445695.5,286046997.0,N
1542445715.3,286047000.7,N
1542445735.2,286047001.8,N
1542445755.0,286047004.3,N
1542445755.9,286047004.3,N
1542445805.8,286047008.9,E
1542445815.7,286047005.0,N
1542445835.6,286047001.5,P
1542445855.4,286047003.7,N
1542445875.2,286047007.3,Y
1542445895.1,286047007.5,P
1542445896.0,286047007.5,P
1542445915.8,286047009.1,P
1542445935.6,286047010.3,Y
1542445955.5,286047006.0,P
1542445975.3,286047006.8,P
1542445995.2,286047007.9,P
1542446015.9,286047012.9,Y
1542446035.7,286047011.5,P
1542446055.6,286047013.0,P
1542446075.4,286047013.3,P
1542446095.3,286047018.4,Y
1542446115.1,286047004.6,P
1542446116.0,286047004.6,N
1542446135.8,286047005.6,N
1542446155.7,286047005.0,N
1542446175.5,286047009.2,Y
1542446195.3,286046999.0,P
1542446215.2,286046999.3,N
1542446235.0,286047000.6,N
1542446235.9,286047000.6,N
1542446255.8,286047000.3,N
1542446275.6,286047000.6,N
1542446295.4,286047000.3,N
1542446315.3,286047000.3,N
1542446335.1,286047002.0,N
1542446355.8,286047005.1,N
1542446375.7,286047006.9,Y
1542446395.5,286047007.4,P
1542446415.4,286047008.7,N
1542446435.2,286047009.7,N
1542446455.0,286047009.6,N
1542446455.9,286047009.6,Y
1542446475.8,286047003.8,P
1542446495.6,286047003.8,N
1542446515.4,286047002.6,N
1542446535.3,286047004.3,N
1542446555.1,286047002.0,N
1542446575.9,286047002.8,N
1542446595.7,286047004.4,N
1542446615.5,286047002.6,N
1542446635.4,286047003.8,N
1542446655.2,286047007.2,Y
1542446675.0,286047003.1,P
1542446675.9,286047003.1,P
1542446695.8,286047006.0,P
1542446715.6,286047008.6,Y
1542446735.5,286047003.4,P
1542446755.3,286047005.8,P
1542446775.1,286047003.0,N
1542446795.9,286047005.7,Y
1542446815.7,286047001.3,P
1542446835.6,286047002.2,N
1542446855.4,286047001.7,N
1542446875.2,286047003.9,Y
1542446895.1,286047003.9,P
1542446896.0,286047003.9,P
1542446915.8,286047002.6,P
1542446935.6,286047001.8,N
1542446955.5,286047003.8,Y
1542446975.3,286047003.9,P
1542446995.2,286047004.1,P
1542447015.9,286047004.2,P
1542447035.7,286047001.7,Y
1542447055.6,286046998.4,P
1542447075.4,286046998.1,N
1542447095.2,286047001.1,N
1542447115.1,286046999.6,N
1542447116.0,286046999.6,N
1542447135.8,286046999.3,N
1542447155.7,286047000.5,N
1542447175.5,286047002.1,N
1542447195.3,286047004.2,N
1542447215.2,286047005.5,N
1542447235.0,286047006.5,N
1542447235.9,286047006.5,N
1542447255.7,286047010.8,Y
1542447275.6,286047009.0,P
1542447295.4,286047008.0,N
1542447315.3,286047004.6,N
1542447335.1,286047005.5,N
1542447336.0,286047005.5,N
1542447355.8,286047003.4,N
1542447375.7,286047003.2,N
1542447395.5,286047004.4,N
1542447415.3,286047001.3,N
1542447435.2,286047003.1,N
1542447455.0,286047005.8,N
1542447455.9,286047005.8,N
1542447475.8,286047007.9,Y
1542447495.6,286047004.5,P
1542447515.4,286047006.7,P
1542447535.3,286047009.1,P
1542447555.1,286047006.2,Y
1542447575.9,286047002.3,P
1542447595.7,286047001.5,N
1542447615.5,286047006.0,N
1542447635.4,286047005.1,N
1542447655.2,286047007.3,Y
1542447675.0,286047003.8,P
1542447675.9,286047003.8,P
1542447695.8,286047004.7,P
1542447715.6,286047008.7,Y
1542447735.5,286047001.7,P
1542447755.3,286047004.3,P
1542447775.1,286047001.6,N
1542447795.9,286047002.2,N
1542447815.7,286047003.4,N
1542447835.5,286047001.3,N
1542447855.4,286047001.5,N
1542447875.2,286047003.4,N
1542447895.1,286047001.5,N
1542447896.0,286047001.5,N
1542447915.8,286047000.6,N
1542447935.6,286046999.9,N
1542447955.5,286047002.1,N
1542447975.3,286047002.8,N
1542447995.1,286046999.5,N
1542448015.9,286046998.1,N
1542448035.7,286046996.6,N
1542448055.6,286047011.9,Y
1542448075.4,286046995.2,P
1542448095.2,286046997.9,N
1542448115.1,286046995.8,N
1542448116.0,286046995.8,N
1542448135.8,286046994.9,N
1542448155.7,286046997.1,N
1542448175.5,286046999.5,N
1542448195.3,286047000.7,N
1542448215.2,286046999.7,N
1542448235.9,286046996.9,N
1542448255.7,286046997.1,N
1542448275.6,286046997.0,N
1542448295.4,286046997.2,N
1542448315.2,286046998.9,N
1542448335.1,286046998.4,N
1542448336.0,286046998.4,N
1542448355.8,286047000.6,N
1542448375.7,286047002.6,N
1542448395.5,286047001.9,N
1542448415.3,286047001.9,N
1542448435.2,286047003.8,N
1542448455.0,286047008.0,Y
1542448455.9,286047008.0,P
1542448475.7,286047009.0,N
1542448495.6,286047007.5,N
1542448515.4,286047004.5,N
1542448535.3,286047006.9,N
1542448555.1,286047006.2,N
1542448556.0,286047006.2,N
1542448575.8,286047007.7,N
1542448595.7,286047011.5,Y
1542448615.5,286047007.2,P
1542448635.3,286047008.1,P
1542448655.2,286047010.5,P
1542448675.0,286047009.5,Y
1542448675.9,286047009.5,P
1542448695.8,286047004.3,P
1542448715.6,286047004.8,N
1542448735.4,286047006.8,Y
1542448755.3,286047000.3,P
1542448775.1,286047003.1,N
1542448795.9,286047006.6,N
